This is the latest recevied weather packets stored in our database for station/object WC0AA-WX. If no packets are shown the sender has not sent any weather packets the latest 10 day(s).
| Time | Temp. | Humidity | Pressure | Rain* | Wind** | Luminosity | Snow |
|---|---|---|---|---|---|---|---|
| 1788204342 | 38.89° C | 41% | 1014.3 hPa | 0 mm | - | - | - |
| 1788203743 | 38.33° C | 41% | 1014.3 hPa | 0 mm | - | - | - |
| 1788202543 | 38.33° C | 40% | 1014.4 hPa | 0 mm | - | - | - |
| 1788201942 | 37.78° C | 42% | 1014.3 hPa | 0 mm | - | - | - |
| 1788201342 | 38.33° C | 41% | 1014.3 hPa | 0 mm | - | - | - |
| 1788200742 | 38.33° C | 42% | 1014.3 hPa | 0 mm | - | - | - |
| 1788192311 | 32.22° C | 55% | 1014 hPa | 0 mm | - | - | - |
| 1788184479 | 27.22° C | 68% | 1013.9 hPa | 0 mm | - | - | - |
| 1788173678 | 26.67° C | 63% | 1011.8 hPa | 0 mm | - | - | - |
| 1788173078 | 26.67° C | 64% | 1011.6 hPa | 0 mm | - | - | - |
| 1788163986 | 24.44° C | 73% | 1011.3 hPa | 0 mm | - | - | - |
| 1788163386 | 23.89° C | 74% | 1011.3 hPa | 0 mm | - | - | - |
| 1788162786 | 24.44° C | 73% | 1011.4 hPa | 0 mm | - | - | - |
| 1788162186 | 24.44° C | 72% | 1011.6 hPa | 0 mm | - | - | - |
| 1788143553 | 29.44° C | 63% | 1009.5 hPa | 0 mm | - | - | - |
| 1788140552 | 30° C | 63% | 1009 hPa | 0 mm | - | - | - |
| 1788139952 | 30° C | 63% | 1008.8 hPa | 0 mm | - | - | - |
| 1788114659 | 36.11° C | 50% | 1010.5 hPa | 0 mm | - | - | - |
| 1788102627 | 28.89° C | 61% | 1010.3 hPa | 0 mm | - | - | - |
| 1788102027 | 28.33° C | 61% | 1010.3 hPa | 0 mm | - | - | - |
| 1788091196 | 25.56° C | 66% | 1010.9 hPa | 0 mm | - | - | - |
| 1788090595 | 25.56° C | 66% | 1010.9 hPa | 0 mm | - | - | - |
| 1788088795 | 25.56° C | 67% | 1011.1 hPa | 0 mm | - | - | - |
| 1788043653 | 35° C | 48% | 1010.2 hPa | 0 mm | - | - | - |
| 1788041259 | 35.56° C | 47% | 1010.3 hPa | 0 mm | - | - | - |
* Rain latest hour (hover to see other rain measurements)
** Current wind speed in m/s (hover to see current wind gust speed)